When you browse on this site, cookies collect data to enhance your experience and personalize the content and advertising you see.
Visit our Privacy Policy to learn more. By continuing to use the site, you agree to this use of cookies and data.
  • In Sweden
  • List of Countries
  • For 7 days
  • Water Temperature
  • Weather Map
  • Weather Widgets
  • user-avatar
    Login

    Hourly Weather Tigard

    Today, 22 August, Thursday

    Time Temperature Precipitation Wind Pressure Humidity
    00:00 +16°C° 0 mm 2 mps 756 mmHg 86%
    01:00 +16°C° 0 mm 2 mps 756 mmHg 84%
    02:00 +16°C° 0 mm 2 mps 756 mmHg 83%
    03:00 +15°C° 0 mm 2 mps 756 mmHg 82%
    04:00 +15°C° 0 mm 1 mps 757 mmHg 82%
    05:00 +15°C° 0 mm 1 mps 757 mmHg 81%
    06:00 +15°C° 0 mm 1 mps 757 mmHg 79%
    07:00 +15°C° 0 mm 1 mps 757 mmHg 78%
    08:00 +18°C° 0 mm 1 mps 757 mmHg 68%
    09:00 +20°C° 0 mm 1 mps 757 mmHg 57%
    10:00 +22°C° 0 mm 1 mps 757 mmHg 47%
    11:00 +23°C° 0 mm 1 mps 757 mmHg 41%
    12:00 +25°C° 0 mm 2 mps 756 mmHg 35%
    13:00 +26°C° 0 mm 2 mps 756 mmHg 30%
    14:00 +26°C° 0 mm 2 mps 756 mmHg 30%
    15:00 +27°C° 0 mm 2 mps 756 mmHg 30%
    16:00 +27°C° 0 mm 3 mps 755 mmHg 30%
    17:00 +25°C° 0 mm 3 mps 755 mmHg 37%
    18:00 +23°C° 0 mm 2 mps 755 mmHg 44%
    19:00 +20°C° 0 mm 2 mps 755 mmHg 52%
    20:00 +18°C° 0 mm 2 mps 755 mmHg 57%
    21:00 +17°C° 0 mm 2 mps 755 mmHg 63%
    22:00 +16°C° 0 mm 1 mps 755 mmHg 69%
    23:00 +15°C° 0 mm 1 mps 755 mmHg 71%

    Tomorrow, 23 August, Friday

    Time Temperature Precipitation Wind Pressure Humidity
    00:00 +15°C° 0 mm 1 mps 755 mmHg 74%
    01:00 +14°C° 0 mm 1 mps 755 mmHg 76%
    02:00 +14°C° 0 mm 1 mps 755 mmHg 78%
    03:00 +13°C° 0 mm 1 mps 755 mmHg 80%
    04:00 +13°C° 0 mm 1 mps 755 mmHg 82%
    05:00 +14°C° 0 mm 1 mps 755 mmHg 80%
    06:00 +14°C° 0 mm 1 mps 755 mmHg 77%
    07:00 +15°C° 0 mm 1 mps 755 mmHg 75%
    08:00 +18°C° 0 mm 1 mps 755 mmHg 68%
    09:00 +20°C° 0 mm 1 mps 754 mmHg 61%
    10:00 +22°C° 0 mm 1 mps 754 mmHg 54%
    11:00 +24°C° 0 mm 1 mps 754 mmHg 48%
    12:00 +26°C° 0 mm 1 mps 754 mmHg 43%
    13:00 +28°C° 0 mm 1 mps 754 mmHg 37%
    14:00 +28°C° 0 mm 2 mps 753 mmHg 36%
    15:00 +28°C° 0 mm 2 mps 753 mmHg 34%
    16:00 +29°C° 0 mm 2 mps 753 mmHg 33%
    17:00 +27°C° 0 mm 2 mps 753 mmHg 37%
    18:00 +25°C° 0 mm 2 mps 753 mmHg 41%
    19:00 +23°C° 0 mm 2 mps 753 mmHg 45%
    20:00 +20°C° 0 mm 2 mps 753 mmHg 46%
    21:00 +19°C° 0 mm 2 mps 754 mmHg 48%
    22:00 +18°C° 0 mm 1 mps 754 mmHg 50%
    23:00 +16°C° 0 mm 1 mps 754 mmHg 51%

    Day after tomorrow, 24 August, Saturday

    Time Temperature Precipitation Wind Pressure Humidity
    00:00 +15°C° 0 mm 1 mps 754 mmHg 53%
    01:00 +15°C° 0 mm 1 mps 754 mmHg 54%
    02:00 +14°C° 0 mm 1 mps 754 mmHg 57%
    03:00 +13°C° 0 mm 0 mps 754 mmHg 59%
    04:00 +12°C° 0 mm 0 mps 754 mmHg 62%
    05:00 +13°C° 0 mm 0 mps 754 mmHg 60%
    06:00 +14°C° 0 mm 0 mps 755 mmHg 59%
    07:00 +14°C° 0 mm 0 mps 755 mmHg 57%
    08:00 +17°C° 0 mm 0 mps 755 mmHg 49%
    09:00 +20°C° 0 mm 0 mps 755 mmHg 41%
    10:00 +22°C° 0 mm 0 mps 755 mmHg 33%
    11:00 +26°C° 0 mm 1 mps 755 mmHg 30%
    12:00 +27°C° 0 mm 1 mps 755 mmHg 27%
    13:00 +29°C° 0 mm 1 mps 755 mmHg 25%
    14:00 +28°C° 0 mm 1 mps 755 mmHg 29%
    15:00 +28°C° 0 mm 2 mps 755 mmHg 34%
    16:00 +28°C° 0 mm 2 mps 755 mmHg 38%
    17:00 +26°C° 0 mm 3 mps 755 mmHg 46%
    18:00 +24°C° 0 mm 3 mps 755 mmHg 53%
    19:00 +21°C° 0 mm 3 mps 755 mmHg 61%
    20:00 +20°C° 0 mm 2 mps 756 mmHg 67%
    21:00 +19°C° 0 mm 2 mps 756 mmHg 74%
    22:00 +18°C° 0 mm 1 mps 756 mmHg 80%
    23:00 +18°C° 0 mm 1 mps 757 mmHg 80%

    25 August, Sunday

    Time Temperature Precipitation Wind Pressure Humidity
    00:00 +16°C° 0 mm 1 mps 757 mmHg 80%
    01:00 +15°C° 0 mm 1 mps 757 mmHg 80%
    02:00 +15°C° 0 mm 1 mps 757 mmHg 81%
    03:00 +15°C° 0 mm 1 mps 757 mmHg 81%
    04:00 +13°C° 0 mm 0 mps 758 mmHg 82%
    05:00 +14°C° 0 mm 0 mps 758 mmHg 79%
    06:00 +15°C° 0 mm 0 mps 758 mmHg 77%
    07:00 +15°C° 0 mm 0 mps 758 mmHg 74%
    08:00 +19°C° 0 mm 1 mps 758 mmHg 65%
    09:00 +21°C° 0 mm 1 mps 758 mmHg 57%
    10:00 +23°C° 0 mm 1 mps 758 mmHg 48%
    11:00 +24°C° 0 mm 2 mps 758 mmHg 44%
    12:00 +25°C° 0 mm 2 mps 758 mmHg 41%
    13:00 +26°C° 0 mm 3 mps 758 mmHg 37%
    14:00 +27°C° 0 mm 3 mps 758 mmHg 36%
    15:00 +27°C° 0 mm 3 mps 758 mmHg 36%
    16:00 +27°C° 0 mm 3 mps 757 mmHg 35%
    17:00 +25°C° 0 mm 3 mps 758 mmHg 41%
    18:00 +22°C° 0 mm 3 mps 758 mmHg 46%
    19:00 +20°C° 0 mm 3 mps 758 mmHg 51%
    20:00 +18°C° 0 mm 2 mps 758 mmHg 57%
    21:00 +17°C° 0 mm 2 mps 759 mmHg 62%
    22:00 +16°C° 0 mm 1 mps 759 mmHg 68%
    23:00 +15°C° 0 mm 1 mps 759 mmHg 71%

    26 August, Monday

    Time Temperature Precipitation Wind Pressure Humidity
    00:00 +14°C° 0 mm 1 mps 759 mmHg 74%
    01:00 +14°C° 0 mm 1 mps 759 mmHg 77%
    02:00 +13°C° 0 mm 1 mps 759 mmHg 79%
    03:00 +13°C° 0 mm 1 mps 759 mmHg 82%
    04:00 +13°C° 0 mm 1 mps 759 mmHg 84%
    05:00 +13°C° 0 mm 1 mps 759 mmHg 81%
    06:00 +14°C° 0 mm 1 mps 758 mmHg 78%
    07:00 +14°C° 0 mm 1 mps 758 mmHg 76%
    08:00 +17°C° 0 mm 2 mps 758 mmHg 67%
    09:00 +19°C° 0 mm 2 mps 758 mmHg 57%
    10:00 +23°C° 0 mm 2 mps 757 mmHg 48%
    11:00 +25°C° 0 mm 2 mps 757 mmHg 42%
    12:00 +28°C° 0 mm 2 mps 756 mmHg 36%
    13:00 +30°C° 0 mm 2 mps 756 mmHg 30%
    14:00 +31°C° 0 mm 3 mps 755 mmHg 30%
    15:00 +33°C° 0 mm 3 mps 755 mmHg 29%
    16:00 +33°C° 0 mm 3 mps 754 mmHg 28%
    17:00 +30°C° 0 mm 3 mps 754 mmHg 33%
    18:00 +28°C° 0 mm 3 mps 754 mmHg 38%
    19:00 +25°C° 0 mm 3 mps 754 mmHg 44%
    20:00 +24°C° 0 mm 2 mps 755 mmHg 47%
    21:00 +23°C° 0 mm 2 mps 755 mmHg 49%
    22:00 +21°C° 0 mm 2 mps 755 mmHg 52%
    23:00 +20°C° 0 mm 2 mps 755 mmHg 55%

    27 August, Tuesday

    Time Temperature Precipitation Wind Pressure Humidity
    00:00 +19°C° 0 mm 2 mps 754 mmHg 57%
    01:00 +18°C° 0 mm 2 mps 754 mmHg 60%
    02:00 +18°C° 0 mm 1 mps 754 mmHg 62%
    03:00 +18°C° 0 mm 1 mps 754 mmHg 64%
    04:00 +16°C° 0 mm 1 mps 754 mmHg 66%
    05:00 +18°C° 0 mm 1 mps 753 mmHg 64%
    06:00 +19°C° 0 mm 1 mps 753 mmHg 62%
    07:00 +19°C° 0 mm 1 mps 753 mmHg 60%
    08:00 +22°C° 0 mm 1 mps 753 mmHg 51%
    09:00 +25°C° 0 mm 1 mps 753 mmHg 42%
    10:00 +27°C° 0 mm 1 mps 753 mmHg 33%
    11:00 +30°C° 0 mm 1 mps 752 mmHg 30%
    12:00 +32°C° 0 mm 1 mps 752 mmHg 26%
    13:00 +34°C° 0 mm 1 mps 752 mmHg 22%
    14:00 +35°C° 0 mm 1 mps 751 mmHg 22%
    15:00 +36°C° 0 mm 1 mps 751 mmHg 21%
    16:00 +36°C° 0 mm 1 mps 751 mmHg 21%
    17:00 +33°C° 0 mm 1 mps 751 mmHg 26%
    18:00 +31°C° 0 mm 1 mps 751 mmHg 32%
    19:00 +28°C° 0 mm 1 mps 751 mmHg 38%
    20:00 +27°C° 0 mm 1 mps 751 mmHg 41%
    21:00 +26°C° 0 mm 1 mps 752 mmHg 43%
    22:00 +24°C° 0 mm 1 mps 752 mmHg 46%
    23:00 +24°C° 0 mm 1 mps 752 mmHg 47%
    Show more